White Mountain Summit Weather observations

Data are for 10 minute period ending at time listed.
 Day   Time   Solar   Ave.   Ave.  Ave.  Vector    Max.    Baro.  
  of    of     Rad.   Air    Rel.  Wind   Wind     Wind   Press.  
Year   Day            Temp.  Hum.  Speed  Dir.     Gust           
2015   (PST)   W/m2    F      %     mph   deg.      mph     mb.   
-------------------------------------------------------------------
  27   11:50    0.0    15   88.0     7    245.3     9.4   999.0 
  27   12:00    0.0    15   88.2     7    242.8     9.4   999.0 
  27   12:10    0.0    15   88.0     7    247.4     9.4   999.0 
  27   12:20    0.0    14   88.0     6    244.0     9.4   999.0 
  27   12:30    0.0    15   88.2     6    237.8     7.1   999.0 
  27   12:40    0.0    15   88.2     7    242.5     9.4   999.0 
  27   12:50    0.0    15   87.4     8    246.1     9.4   999.0 
  27   13:00    0.0    15   87.8     6    242.3     9.4   999.0 
  27   13:10    0.0    15   88.0     6    242.6     7.1   999.0 
  27   13:20    0.0    15   87.9     6    240.7     9.4   999.0 
  27   13:30    0.0    15   88.3     6    238.7     7.1   999.0 
  27   13:40    0.0    15   88.2     6    240.6     9.4   999.0 
  27   13:50    0.0    15   88.2     5    236.0     7.1   999.0 
  27   14:00    0.0    15   88.3     6    241.0     9.4   999.0 
  27   14:10    0.0    15   88.3     7    245.4     9.4   999.0 
  27   14:20    0.0    15   88.4     8    246.2    11.8   999.0 
  27   14:30    0.0    15   88.5     8    246.6     9.4   999.0 
  27   14:40    0.0    16   88.5     8    245.5     9.4   999.0 
  27   14:50    0.0    16   88.5     7    243.2     9.4   999.0 
  27   15:00    0.0    15   88.6     7    244.6     9.4   999.0 
  27   15:10    0.0    15   88.7     7    243.1     9.4   999.0 
  27   15:20    0.0    15   88.5     7    243.7     9.4   999.0 
  27   15:30    0.0    15   88.7     7    244.1     9.4   999.0 
  27   15:40    0.0    15   88.6     8    242.7    11.8   999.0 
  27   15:50    0.0    14   88.4     9    243.6    11.8   999.0 
  27   16:00    0.0    14   88.5     7    241.9    11.8   999.0 
  27   16:10    0.0    14   88.7     5    236.6     7.1   999.0 
  27   16:20    0.0    15   88.9     4    233.0     4.7   999.0 
  27   16:30    0.0    14   88.5     3    231.6     7.1   999.0 
  27   16:40    0.0    14   88.6     3    230.4     7.1   999.0 
  27   16:50    0.0    15   88.7     2    223.1     4.7   999.0 
  27   17:00    0.0    15   88.7     2    223.0     4.7   999.0 
  27   17:10    0.0    15   88.7     2    222.1     2.4   999.0 
  27   17:20    0.0    15   88.9     2    223.3     4.7   999.0 
  27   17:30    0.0    14   88.9     3    224.6     4.7   999.0 
  27   17:40    0.0    14   89.0     3    222.0     4.7   999.0 
  27   17:50    0.0    14   88.8     2    218.7     4.7   999.0 
  27   18:00    0.0    14   88.8     2    218.1     4.7   999.0 
  27   18:10    0.0    14   88.7     4    222.3     7.1   999.0 
  27   18:20    0.0    13   88.6     5    226.8     7.1   999.0 
  27   18:30    0.0    13   88.8     3    219.4     4.7   999.0 
  27   18:40    0.0    13   88.6     4    221.7     7.1   999.0 
  27   18:50    0.0    13   88.4     5    225.1     7.1   999.0 
  27   19:00    0.0    12   88.4     5    224.7     7.1   999.0 
  27   19:10    0.0    13   88.7     4    219.5     7.1   999.0 
  27   19:20    0.0    13   88.5     4    220.2     4.7   999.0 
  27   19:30    0.0    13   88.5     2    213.8     4.7   999.0 
  27   19:40    0.0    13   88.5     4    218.1     4.7   999.0 
  27   19:50    0.0    13   88.6     5    220.4     7.1   999.0 
  27   20:00    0.0    13   88.6     4    219.4     7.1   999.0 
  27   20:10    0.0    13   88.8     2    210.4     4.7   999.0 
  27   20:20    0.0    14   88.8     2    207.3     2.4   999.0 
  27   20:30    0.0    14   88.8     2    206.5     2.4   999.0 
  27   20:40    0.0    14   88.9     0    201.1     2.4   999.0 
  27   20:50    0.0    14   88.7     0      0.0     0.0   999.0 
  27   21:00    0.0    13   88.6     0      0.0     0.0   999.0 
  27   21:10    0.0    13   88.7     0      0.0     0.0   999.0 
  27   21:20    0.0    13   88.6     0      0.0     0.0   999.0 
  27   21:30    0.0    13   88.5     0      0.0     0.0   999.0 
  27   21:40    0.0    13   88.6     0      0.0     0.0   999.0 
  27   21:50    0.0    13   88.5     0      0.0     0.0   999.0 
  27   22:00    0.0    13   88.4     0      0.0     0.0   999.0 
  27   22:10    0.0    12   88.5     0      0.0     0.0   999.0 
  27   22:20    0.0    13   88.7     0      0.0     0.0   999.0 
  27   22:30    0.0    12   88.4     0      0.0     0.0   999.0 
  27   22:40    0.0    12   88.4     0      0.0     0.0   999.0 
  27   22:50    0.0    12   88.2     0      0.0     0.0   999.0 
  27   23:00    0.0    12   88.2     0      0.0     0.0   999.0 
  27   23:10    0.0    12   88.2     0      0.0     0.0   999.0 
  27   23:20    0.0    12   88.2     0      0.0     0.0   999.0 
  27   23:30    0.0    12   88.1     0      0.0     0.0   999.0 
  27   23:40    0.0    12   88.2     0      0.0     0.0   999.0 
  27   23:50    0.0    12   88.2     0      0.0     0.0   999.0 
  28    0:00    0.0    12   88.3     0      0.0     0.0   999.0 
  28    0:10    0.0    12   88.2     0      0.0     0.0   999.0 
  28    0:20    0.0    12   88.3     0      0.0     0.0   999.0 
  28    0:30    0.0    12   88.2     0      0.0     0.0   999.0 
  28    0:40    0.0    11   88.2     0      0.0     0.0   999.0 
  28    0:50    0.0    11   88.3     0      0.0     0.0   999.0 
  28    1:00    0.0    12   88.4     0      0.0     0.0   999.0 
  28    1:10    0.0    12   88.5     3    211.7     4.7   999.0 
  28    1:20    0.0    12   88.6     2    212.6     4.7   999.0 
  28    1:30    0.0    12   88.6     3    214.5     4.7   999.0 
  28    1:40    0.0    12   88.5     3    212.9     4.7   999.0 
  28    1:50    0.0    12   88.5     4    215.8     7.1   999.0 
  28    2:00    0.0    12   88.5     4    217.4     4.7   999.0 
  28    2:10    0.0    12   88.6     3    218.2     4.7   999.0 
  28    2:20    0.0    12   88.6     3    219.1     4.7   999.0 
  28    2:30    0.0    12   88.7     3    220.1     4.7   999.0 
  28    2:40    0.0    12   88.7     3    217.9     4.7   999.0 
  28    2:50    0.0    12   88.8     2    215.3     2.4   999.0 
  28    3:00    0.0    12   88.8     0      0.0     0.0   999.0 
  28    3:10    0.0    12   88.9     0      0.0     0.0   999.0 
  28    3:20    0.0    12   88.9     0      0.0     0.0   999.0 
  28    3:30    0.0    12   88.9     0      0.0     0.0   999.0 
  28    3:40    0.0    12   88.8     0      0.0     0.0   999.0 
  28    3:50    0.0    12   88.7     0      0.0     0.0   999.0 
  28    4:00    0.0    12   88.6     0      0.0     0.0   999.0 
  28    4:10    0.0    12   88.6     0      0.0     0.0   999.0 
  28    4:20    0.0    12   88.6     0      0.0     0.0   999.0 
  28    4:30    0.0    12   88.5     0      0.0     0.0   999.0 
  28    4:40    0.0    12   88.5     0      0.0     0.0   999.0 
  28    4:50    0.0    12   88.5     0      0.0     0.0   999.0 
  28    5:00    0.0    12   88.5     0      0.0     0.0   999.0 
  28    5:10    0.0    12   88.5     0      0.0     0.0   999.0 
  28    5:20    0.0    12   88.5     0      0.0     0.0   999.0 
  28    5:30    0.0    12   88.5     0      0.0     0.0   999.0 
  28    5:40    0.0    12   88.5     0      0.0     0.0   999.0 
  28    5:50    0.0    12   88.5     0      0.0     0.0   999.0 
  28    6:00    0.0    12   88.4     0      0.0     0.0   999.0 
  28    6:10    0.0    12   88.4     0      0.0     0.0   999.0 
  28    6:20    0.0    12   88.5     0      0.0     0.0   999.0 
  28    6:30    0.0    12   88.5     0      0.0     0.0   999.0 
  28    6:40    0.0    12   88.5     0      0.0     0.0   999.0 
  28    6:50    0.0    12   88.4     0      0.0     0.0   999.0 
  28    7:00    0.0    12   88.4     0      0.0     0.0   999.0 
  28    7:10    0.0    12   88.4     0      0.0     0.0   999.0 
  28    7:20    0.0    12   88.4     0      0.0     0.0   999.0 
  28    7:30    0.0    12   88.3     0      0.0     0.0   999.0 
  28    7:40    0.0    13   88.2     0      0.0     0.0   999.0 
  28    7:50    0.0    14   88.0     0      0.0     0.0   999.0 
  28    8:00    0.0    14   87.9     0      0.0     0.0   999.0 
  28    8:10    0.0    14   87.8     1    120.1     2.4   999.0 
  28    8:20    0.0    15   87.2     2    118.0     4.7   999.0 
  28    8:30    0.0    16   86.6     2    116.7     4.7   999.0 
  28    8:40    0.0    16   86.2     2    116.3     4.7   999.0 
  28    8:50    0.0    17   85.9     2    117.3     4.7   999.0 
  28    9:00    0.0    17   86.1     2    118.9     4.7   999.0 
  28    9:10    0.0    17   86.1     2    125.9     2.4   999.0 
  28    9:20    0.0    17   86.2     1    125.0     2.4   999.0 
  28    9:30    0.0    18   86.4     1    135.4     2.4   999.0 
  28    9:40    0.0    18   86.3     1    133.5     2.4   999.0 
  28    9:50    0.0    18   86.1     1    127.2     2.4   999.0 
  28   10:00    0.0    18   86.0     1    132.2     2.4   999.0 
  28   10:10    0.0    19   85.8     1    136.2     2.4   999.0 
  28   10:20    0.0    20   86.1     1    137.2     2.4   999.0 
  28   10:30    0.0    21   86.1     1    142.0     2.4   999.0 
  28   10:40    0.0    22   86.2     0    149.6     2.4   999.0 
  28   10:50    0.0    22   86.4     0      0.0     0.0   999.0 
  28   11:00    0.0    22   87.1     1    161.6     2.4   999.0 
  28   11:10    0.0    23   87.6     1    173.8     2.4   999.0 
  28   11:20    0.0    24   88.0     0    181.5     2.4   999.0 
  28   11:30  410.0    26   88.0     0      0.0     0.0   999.0 
  28   11:40  693.0    27   87.0     0      0.0     0.0   999.0 

Return to White Mountain graphs page.


Western Regional Climate Center,wrcc@dri.edu